Hourly Data Report for October 24, 2014

All times are specified in Local Standard Time (LST). Add 1 hour to adjust for Daylight Saving Time where and when it is observed.

HALL BEACH A
NUNAVUT

68°46'33.000" N
81°14'33.000" W
9.10 m
2402354
71293
YUX

Download Data

Hourly Data (October 2014)
Hourly Data Report for October 24, 2014
Temp Definition
°C
Dew Point Temp Definition
°C
Rel Hum Definition
%
Wind Dir Definition
10's deg

Wind Spd Definition
km/h
Visibility Definition
km
Stn Press Definition
kPa
Hmdx Definition


Wind Chill Definition


Weather Definition


TIME
00:00 Legend Double Dagger -15.3 -17.1 86 31 43 4.0 102.14   -28 Fog
01:00 Legend Double Dagger -15.7 -17.5 86 32 37 9.7 102.21   -28 Fog
02:00 Legend Double Dagger -16.5 -18.2 87 31 41 16.1 102.23   -30 LegendNANA
03:00 Legend Double Dagger -16.3 -18.0 87 32 39 6.4 102.27   -29 Fog
04:00 Legend Double Dagger -17.1 -18.8 87 32 39 16.1 102.29   -30 LegendNANA
05:00 Legend Double Dagger -17.6 -19.6 85 30 28 16.1 102.33   -29 LegendNANA
06:00 Legend Double Dagger -18.7 -20.6 86 29 22 16.1 102.36   -29 LegendNANA
07:00 Legend Double Dagger -18.3 -20.1 86 31 39 16.1 102.30   -32 LegendNANA
08:00 Legend Double Dagger -18.2 -20.1 85 31 34 16.1 102.32   -31 LegendNANA
09:00 Legend Double Dagger -18.8 -20.5 87 29 11 16.1 102.40   -26 LegendNANA
10:00 Legend Double Dagger -18.5 -20.7 83 31 15 16.1 102.39   -27 LegendNANA
11:00 Legend Double Dagger -17.1 -19.2 84 31 35 16.1 102.39   -30 LegendNANA
12:00 Legend Double Dagger -17.5 -19.7 83 30 26 16.1 102.40   -29 LegendNANA
13:00 Legend Double Dagger -16.9 -19.1 83 30 37 16.1 102.37   -30 LegendNANA
14:00 Legend Double Dagger -18.2 -20.3 84 30 22 16.1 102.44   -29 LegendNANA
15:00 Legend Double Dagger -18.4 -20.6 83 31 24 16.1 102.44   -29 LegendNANA
16:00 Legend Double Dagger -20.0 -22.1 84 28 13 16.1 102.43   -28 LegendNANA
17:00 Legend Double Dagger -19.9 -21.7 86 32 34 16.1 102.38   -33 LegendNANA
18:00 Legend Double Dagger -19.6 -21.5 85 32 28 16.1 102.41   -32 LegendNANA
19:00 Legend Double Dagger -19.5 -21.4 85 31 26 16.1 102.40   -31 LegendNANA
20:00 Legend Double Dagger -20.7 -22.4 86 32 30 16.1 102.36   -33 LegendNANA
21:00 Legend Double Dagger -22.2 -24.1 85 31 17 16.1 102.44   -32 LegendNANA
22:00 Legend Double Dagger -22.4 -24.3 85 32 22 16.1 102.35   -34 LegendNANA
23:00 Legend Double Dagger -23.2 -25.1 84 30 17 16.1 102.37   -34 LegendNANA

Notes on Data Quality.

Legend

  • E = Estimated
  • M = Missing
  • NA = Not Available
  • ‡ = Partner data that is not subject to review by the National Climate Archives
Date modified: